Printer-friendly version
Follow the MPC on Twitter Follow the MPC on Facebook The MPC blog
Minor Planet Center

MPEC 2010-L84 : 2010 LD64

The following Minor Planet Electronic Circular may be linked-to from your own Web pages, but must not otherwise be redistributed electronically.

A form allowing access to any MPEC is at the bottom of this page.


Read MPEC 2010-L83 Read MPEC 2010-L85


M.P.E.C. 2010-L84                                Issued 2010 June 14, 18:10 UT

     The Minor Planet Electronic Circulars contain information on unusual
         minor planets and routine data on comets.  They are published
   on behalf of Commission 20 of the International Astronomical Union by the
          Minor Planet Center, Smithsonian Astrophysical Observatory,
                          Cambridge, MA 02138, U.S.A.

             Prepared using the Tamkin Foundation Computer Network

                              MPC@CFA.HARVARD.EDU
       URL http://www.minorplanetcenter.org/iau/mpc.html  ISSN 1523-6714

                                   2010 LD64

Observations:
     K10L64D* C2010 06 14.28757 16 52 13.47 -13 14 24.5          21.4 V EL084G96
     K10L64D  C2010 06 14.29347 16 52 16.53 -13 14 43.0          20.6 V EL084G96
     K10L64D  C2010 06 14.29948 16 52 19.63 -13 15 01.8          21.2 V EL084G96
     K10L64D  C2010 06 14.30547 16 52 22.72 -13 15 20.2          21.2 V EL084G96
     K10L64D  C2010 06 14.34303 16 52 42.27 -13 17 16.0          21.6 V EL084G96
     K10L64D  C2010 06 14.34348 16 52 42.34 -13 17 16.9          21.1 V EL084G96
     K10L64D  C2010 06 14.34397 16 52 42.67 -13 17 18.1          21.6 V EL084G96
     K10L64D  C2010 06 14.35748 16 52 49.67 -13 17 59.1                 EL084G96
     K10L64D  C2010 06 14.35804 16 52 49.98 -13 18 01.2                 EL084G96
     K10L64D  C2010 06 14.35857 16 52 50.41 -13 18 02.6                 EL084G96
     K10L64D KC2010 06 14.36287 16 52 52.28 -13 18 16.6          20.6 R EL084H01
     K10L64D KC2010 06 14.37014 16 52 56.09 -13 18 38.7          20.8 R EL084H01
     K10L64D KC2010 06 14.37860 16 53 00.51 -13 19 04.0          21.1 R EL084H01
     K10L64D KC2010 06 14.39042 16 53 06.72 -13 19 39.9          20.6 R EL084H01

Observer details:
G96 Mt. Lemmon Survey.  Observer A. R. Gibbs.  Measurers J. D. Ahern,
    E. C. Beshore, A. Boattini, G. J. Garradd, A. R. Gibbs, A. D. Grauer,
    R. E. Hill, R. A. Kowalski, S. M. Larson, R. H. McNaught.  1.5-m reflector
    + CCD.
H01 Magdalena Ridge Observatory, Socorro.  Observer W. H. Ryan.  2.4-m f/8.9
    reflector + CCD.

Orbital elements:
2010 LD64                                                Earth MOID = 0.0700 AU
Epoch 2010 July 23.0 TT = JDT 2455400.5                 MPC
M  13.91500              (2000.0)            P               Q
n   0.23823268     Peri.  134.75180     -0.48836478     +0.87204702
a   2.5771230      Node   105.98995     -0.80978296     -0.43914900
e   0.5816532      Incl.    1.91675     -0.32519441     -0.21606053
P   4.14           H   25.4           G   0.15           U   9
Residuals in seconds of arc
100614 G96  0.2+  0.3+    100614 G96  1.5-  0.2-    100614 H01  0.0   0.2+
100614 G96  0.2+  0.1+    100614 G96  0.4-  0.1+    100614 H01  0.1+  0.1+
100614 G96  0.0   0.1-    100614 G96  0.7-  0.2+    100614 H01  0.0   0.3+
100614 G96  0.2-  0.0     100614 G96  0.5-  0.2-    100614 H01  0.1+  0.0
100614 G96  0.9+  0.7-    100614 G96  1.8+  0.0

Ephemeris:
2010 LD64                a,e,i = 2.58, 0.58, 2                   q = 1.0781
Date    TT    R. A. (2000) Decl.     Delta      r     Elong.  Phase     V
2010 06 13    16 40.08   -12 03.9    0.0901   1.103   164.7    14.0    21.2
2010 06 18    17 23.83   -16 02.6    0.103    1.118   171.1     8.1    21.3
2010 06 23    17 58.21   -18 46.4    0.120    1.135   175.0     4.5    21.5
2010 06 28    18 24.24   -20 35.1    0.140    1.156   177.2     2.4    21.7
2010 07 03    18 43.71   -21 47.6    0.163    1.180   178.6     1.2    22.0

Sonia Keys                   (C) Copyright 2010 MPC           M.P.E.C. 2010-L84

Read MPEC 2010-L83 Read MPEC 2010-L85


MPEC number:

Enter an MPEC number in one of the following forms:

  • 1997-B01 (the full form)
  • J97B01 (the packed version of the full form)
  • B01 (the abbreviated form)

Valid HTML 4.01!